Погода в Майке

Россия / Тюменская область     55°36′34″N   70°29′43″E
темп.,
°C
ветер,
м/с
пор.,
м/с
влажн.,
%
обл.,
%
осадки,
мм/ч
давл.,
гПа
погр.,
м
17 октября, вс
вс1723:00+7ююз41067100 0.0 1023227
02:00+7ююз396899 0.0 1022219
05:00+5зюз3678100 0.0 1023106
08:00+5зюз34885 0.0 102397
11:00+9зюз455827 0.0 1023652
14:00+11зюз56475 0.0 10221294
17:00+9зюз456085 0.0 1022148
20:00+7зюз3470100 0.0 102257
18 октября, пн
пн1823:00+5зюз33745 0.0 102242
02:00+4юз35775 0.0 102269
05:00+3юз357524 0.0 102273
08:00+3юз356841 0.0 1022107
11:00+9юз465029 0.0 1022384
14:00+13юз575141 0.0 1021710
17:00+10ю4864100 0.0 1020138
20:00+9ююз41163100 0.0 1020226
19 октября, вт
вт1923:00+8ююз4116096 0.0 1020217
02:00+7ююз41061100 0.0 1020179
05:00+7ююз41165100 0.0 1019189
08:00+8ююз41164100 0.0 1020238
11:00+12ююз6105098 0.0 1019426
14:00+15ююз694027 0.0 1017790
17:00+11ю4951100 0.0 1017178
20:00+10ю41157100 0.0 1016228
20 октября, ср
ср2023:00+8ю41064100 0.0 1015199
02:00+7ю496578 0.0 1014152
05:00+6ю3764100 0.0 1012125
08:00+6ю3858100 0.0 1012159
11:00+10ю4641100 0.0 1010308
14:00+13ю463599 0.0 1008458
17:00+10ююв3644100 0.0 100892
20:00+8ююв3750100 0.0 1007122
21 октября, чт
чт2123:00+7ююв3551100 0.0 100582
02:00+6ю3555100 0.0 100475
05:00+5ю3558100 0.0 100383
08:00+6ююз3654100 0.0 1003128
11:00+11юз3539100 0.0 1003278
14:00+13юз2235100 0.0 1003619
17:00+11в1142100 0.0 100310
20:00+9ссв2349100 0.1 100465